When you browse on this site, cookies collect data to enhance your experience and personalize the content and advertising you see.
Visit our Privacy Policy to learn more. By continuing to use the site, you agree to this use of cookies and data.
  • In Latvia
  • List of Countries
  • For 7 days
  • Water Temperature
  • Weather Map
  • Weather Widgets
  • user-avatar
    Login

    Hourly Weather Houston

    Today, 23 September, Monday

    Time Temperature Precipitation Wind Pressure Humidity
    00:00 +29°C° 0 mm 3 mps 761 mmHg 79%
    01:00 +29°C° 0 mm 3 mps 761 mmHg 80%
    02:00 +29°C° 0 mm 3 mps 760 mmHg 80%
    03:00 +29°C° 0 mm 2 mps 760 mmHg 81%
    04:00 +29°C° 0.1 mm 2 mps 760 mmHg 81%
    05:00 +29°C° 0.1 mm 2 mps 760 mmHg 81%
    06:00 +29°C° 0.1 mm 2 mps 760 mmHg 82%
    07:00 +30°C° 0.4 mm 2 mps 761 mmHg 76%
    08:00 +31°C° 0.4 mm 2 mps 761 mmHg 70%
    09:00 +32°C° 0.4 mm 2 mps 762 mmHg 65%
    10:00 +34°C° 0.1 mm 3 mps 761 mmHg 61%
    11:00 +35°C° 0.1 mm 3 mps 761 mmHg 58%
    12:00 +36°C° 0.1 mm 3 mps 761 mmHg 54%
    13:00 +36°C° 0.3 mm 4 mps 760 mmHg 54%
    14:00 +36°C° 0.3 mm 4 mps 760 mmHg 55%
    15:00 +36°C° 0.3 mm 4 mps 759 mmHg 55%
    16:00 +35°C° 0.2 mm 4 mps 759 mmHg 59%
    17:00 +34°C° 0.2 mm 4 mps 759 mmHg 63%
    18:00 +33°C° 0.2 mm 4 mps 759 mmHg 67%
    19:00 +32°C° 0 mm 4 mps 759 mmHg 69%
    20:00 +31°C° 0 mm 3 mps 760 mmHg 71%
    21:00 +30°C° 0 mm 3 mps 760 mmHg 73%
    22:00 +30°C° 0 mm 3 mps 760 mmHg 75%
    23:00 +29°C° 0 mm 3 mps 760 mmHg 76%

    Tomorrow, 24 September, Tuesday

    Time Temperature Precipitation Wind Pressure Humidity
    00:00 +29°C° 0 mm 3 mps 759 mmHg 78%
    01:00 +29°C° 0 mm 3 mps 759 mmHg 79%
    02:00 +29°C° 0 mm 3 mps 759 mmHg 81%
    03:00 +28°C° 0 mm 2 mps 759 mmHg 82%
    04:00 +28°C° 0 mm 2 mps 759 mmHg 82%
    05:00 +28°C° 0 mm 2 mps 759 mmHg 82%
    06:00 +28°C° 0 mm 2 mps 759 mmHg 82%
    07:00 +29°C° 0 mm 2 mps 759 mmHg 75%
    08:00 +30°C° 0 mm 2 mps 759 mmHg 68%
    09:00 +31°C° 0 mm 3 mps 760 mmHg 62%
    10:00 +33°C° 0 mm 3 mps 759 mmHg 57%
    11:00 +34°C° 0 mm 3 mps 759 mmHg 52%
    12:00 +35°C° 0 mm 4 mps 759 mmHg 48%
    13:00 +35°C° 0 mm 4 mps 758 mmHg 48%
    14:00 +35°C° 0 mm 4 mps 758 mmHg 48%
    15:00 +35°C° 0 mm 4 mps 757 mmHg 49%
    16:00 +33°C° 0 mm 4 mps 757 mmHg 52%
    17:00 +32°C° 0 mm 4 mps 757 mmHg 56%
    18:00 +30°C° 0 mm 4 mps 757 mmHg 60%
    19:00 +30°C° 0 mm 3 mps 757 mmHg 61%
    20:00 +29°C° 0 mm 3 mps 757 mmHg 62%
    21:00 +29°C° 0 mm 3 mps 758 mmHg 63%
    22:00 +28°C° 0 mm 3 mps 757 mmHg 64%
    23:00 +28°C° 0 mm 3 mps 757 mmHg 66%

    Day after tomorrow, 25 September, Wednesday

    Time Temperature Precipitation Wind Pressure Humidity
    00:00 +28°C° 0 mm 2 mps 757 mmHg 67%
    01:00 +27°C° 0 mm 2 mps 757 mmHg 69%
    02:00 +27°C° 0 mm 2 mps 757 mmHg 72%
    03:00 +27°C° 0 mm 2 mps 757 mmHg 74%
    04:00 +27°C° 0 mm 2 mps 757 mmHg 75%
    05:00 +27°C° 0 mm 1 mps 757 mmHg 76%
    06:00 +27°C° 0 mm 1 mps 757 mmHg 77%
    07:00 +28°C° 0 mm 1 mps 758 mmHg 71%
    08:00 +29°C° 0 mm 2 mps 758 mmHg 66%
    09:00 +30°C° 0 mm 2 mps 758 mmHg 61%
    10:00 +31°C° 0 mm 2 mps 758 mmHg 59%
    11:00 +33°C° 0 mm 3 mps 758 mmHg 56%
    12:00 +34°C° 0 mm 3 mps 758 mmHg 54%
    13:00 +34°C° 0.1 mm 3 mps 757 mmHg 55%
    14:00 +34°C° 0.1 mm 4 mps 757 mmHg 57%
    15:00 +34°C° 0.1 mm 4 mps 756 mmHg 58%
    16:00 +33°C° 0 mm 4 mps 756 mmHg 60%
    17:00 +32°C° 0 mm 4 mps 757 mmHg 62%
    18:00 +30°C° 0 mm 4 mps 757 mmHg 65%
    19:00 +30°C° 0 mm 3 mps 757 mmHg 66%
    20:00 +29°C° 0 mm 3 mps 757 mmHg 67%
    21:00 +29°C° 0 mm 3 mps 758 mmHg 68%
    22:00 +28°C° 0 mm 3 mps 758 mmHg 68%
    23:00 +28°C° 0 mm 3 mps 758 mmHg 68%

    26 September, Thursday

    Time Temperature Precipitation Wind Pressure Humidity
    00:00 +28°C° 0 mm 2 mps 757 mmHg 68%
    01:00 +27°C° 0 mm 2 mps 757 mmHg 68%
    02:00 +27°C° 0 mm 2 mps 757 mmHg 69%
    03:00 +27°C° 0 mm 2 mps 757 mmHg 69%
    04:00 +27°C° 0 mm 1 mps 757 mmHg 70%
    05:00 +27°C° 0 mm 1 mps 758 mmHg 71%
    06:00 +26°C° 0 mm 1 mps 758 mmHg 72%
    07:00 +28°C° 0 mm 1 mps 758 mmHg 68%
    08:00 +29°C° 0 mm 1 mps 758 mmHg 63%
    09:00 +30°C° 0 mm 1 mps 759 mmHg 59%
    10:00 +31°C° 0 mm 2 mps 759 mmHg 54%
    11:00 +32°C° 0 mm 2 mps 758 mmHg 48%
    12:00 +35°C° 0 mm 2 mps 758 mmHg 43%
    13:00 +35°C° 0 mm 3 mps 758 mmHg 44%
    14:00 +35°C° 0 mm 3 mps 757 mmHg 45%
    15:00 +35°C° 0 mm 4 mps 756 mmHg 46%
    16:00 +34°C° 0 mm 4 mps 756 mmHg 51%
    17:00 +32°C° 0 mm 4 mps 757 mmHg 56%
    18:00 +30°C° 0 mm 4 mps 757 mmHg 61%
    19:00 +30°C° 0 mm 4 mps 757 mmHg 65%
    20:00 +29°C° 0 mm 4 mps 757 mmHg 69%
    21:00 +29°C° 0 mm 4 mps 758 mmHg 73%
    22:00 +28°C° 0 mm 3 mps 758 mmHg 73%
    23:00 +28°C° 0 mm 3 mps 757 mmHg 74%

    27 September, Friday

    Time Temperature Precipitation Wind Pressure Humidity
    00:00 +28°C° 0 mm 3 mps 757 mmHg 75%
    01:00 +28°C° 0 mm 3 mps 757 mmHg 75%
    02:00 +27°C° 0 mm 3 mps 757 mmHg 75%
    03:00 +27°C° 0 mm 3 mps 756 mmHg 75%
    04:00 +27°C° 0 mm 2 mps 757 mmHg 75%
    05:00 +27°C° 0 mm 2 mps 757 mmHg 76%
    06:00 +27°C° 0 mm 2 mps 757 mmHg 76%
    07:00 +28°C° 0 mm 2 mps 757 mmHg 71%
    08:00 +29°C° 0 mm 3 mps 757 mmHg 66%
    09:00 +30°C° 0 mm 3 mps 758 mmHg 60%
    10:00 +31°C° 0 mm 3 mps 758 mmHg 56%
    11:00 +33°C° 0 mm 4 mps 757 mmHg 52%
    12:00 +35°C° 0 mm 4 mps 757 mmHg 47%
    13:00 +35°C° 0 mm 4 mps 757 mmHg 49%
    14:00 +35°C° 0 mm 4 mps 756 mmHg 50%
    15:00 +34°C° 0 mm 5 mps 756 mmHg 51%
    16:00 +33°C° 0 mm 5 mps 756 mmHg 56%
    17:00 +32°C° 0 mm 4 mps 756 mmHg 61%
    18:00 +30°C° 0 mm 4 mps 756 mmHg 65%
    19:00 +30°C° 0 mm 4 mps 756 mmHg 68%
    20:00 +29°C° 0 mm 3 mps 757 mmHg 71%
    21:00 +29°C° 0 mm 3 mps 757 mmHg 74%
    22:00 +29°C° 0 mm 3 mps 757 mmHg 74%
    23:00 +28°C° 0 mm 3 mps 757 mmHg 75%

    28 September, Saturday

    Time Temperature Precipitation Wind Pressure Humidity
    00:00 +28°C° 0 mm 3 mps 757 mmHg 76%
    01:00 +28°C° 0 mm 2 mps 757 mmHg 76%
    02:00 +28°C° 0 mm 2 mps 757 mmHg 76%
    03:00 +28°C° 0 mm 2 mps 757 mmHg 75%
    04:00 +28°C° 0 mm 2 mps 757 mmHg 76%
    05:00 +27°C° 0 mm 2 mps 757 mmHg 76%
    06:00 +27°C° 0 mm 2 mps 757 mmHg 76%
    07:00 +28°C° 0 mm 2 mps 758 mmHg 72%
    08:00 +30°C° 0 mm 2 mps 758 mmHg 67%
    09:00 +31°C° 0 mm 2 mps 758 mmHg 63%
    10:00 +33°C° 0 mm 3 mps 758 mmHg 59%
    11:00 +34°C° 0 mm 3 mps 758 mmHg 56%
    12:00 +35°C° 0 mm 3 mps 758 mmHg 53%
    13:00 +35°C° 0.2 mm 4 mps 758 mmHg 55%
    14:00 +35°C° 0.2 mm 4 mps 757 mmHg 56%
    15:00 +34°C° 0.2 mm 5 mps 757 mmHg 58%
    16:00 +33°C° 0 mm 4 mps 757 mmHg 59%
    17:00 +33°C° 0 mm 4 mps 757 mmHg 61%
    18:00 +32°C° 0 mm 4 mps 757 mmHg 62%
    19:00 +30°C° 0 mm 4 mps 758 mmHg 67%
    20:00 +30°C° 0 mm 4 mps 758 mmHg 71%
    21:00 +29°C° 0 mm 3 mps 758 mmHg 76%
    22:00 +29°C° 0 mm 3 mps 758 mmHg 78%
    23:00 +29°C° 0 mm 3 mps 758 mmHg 80%
    Show more